Location: Melara
(45.0500°N, 11.1833°E)
Time: 22:43:00
(UTC+00:00)

Intercosmos 25 Rocket - Pass Details

Date: 26 May 2022
Orbit: 434 x 2983 km, 82.6° (Epoch: 02 July)

Event Time Altitude Azimuth Distance (km) Brightness Sun altitude
Rises 03:00:10 0° 357° (N) 2,449 7.2 -6.0°
Reaches altitude 10° 03:02:02 10° 3° (N) 1,635 6.4 -5.7°
Maximum altitude 03:05:19 50° 81° (E) 708 4.4 -5.3°
Drops below altitude 10° 03:09:48 10° 157° (SSE) 2,225 6.3 -4.6°
Sets 03:12:43 0° 162° (SSE) 3,473 7.2 -4.2°
